Zurück zum Katalog

ONEWEB-0669

AktivKommunikationPO
NORAD 55828·PAYLOAD·🇬🇧 United Kingdom

Gestartet Mar 9, 2023 von Cape Canaveral Space Force Station

Loading…

Nächste Überflüge (nächste 24 Stunden)

TLE

AktuellSource: CelesTrak SupGP

Epoche: Sep 14, 2026, 15:59 UTC

1 55828C 23029AJ  26257.66647407 -.00002859  00000+0 -70390-2 0  2579
2 55828  87.9136 256.5915 0002335 101.8117  10.4688 13.20774223    18

Verfolge ONEWEB-0669 in Echtzeit mit AllMySat

Download on the App Store